RADCAL 1 22698U 93041A 09183.53352037 .00000097 00000-0 36505-4 0 3727 2 22698 89.5320 26.3757 0087295 267.7084 91.4129 14.22817603831452 STRV 1A 1 23125U 94034B 09182.76104080 .00001065 00000-0 27252-3 0 4627 2 23125 7.2856 77.3959 6838928 308.9829 7.8894 2.85074799139860 STRV 1B 1 23126U 94034C 09183.07926429 .00004871 00000-0 52143-3 0 4661 2 23126 7.4638 24.7987 6806623 54.5431 351.4503 2.92220565142083 HELIOS 1A 1 23605U 95033A 09184.85872130 .00000136 00000-0 34979-4 0 2755 2 23605 98.0816 121.2388 0001987 32.6550 327.4805 14.63843148747617 REX 2 1 23814U 96014A 09184.25484027 .00000051 00000-0 17550-4 0 7189 2 23814 90.1614 272.5771 0020030 260.9587 98.9336 14.23867765691838 COSMOS 2346 1 24953U 97052A 09184.42645047 .00000035 00000-0 18944-4 0 5196 2 24953 82.9200 303.5554 0041384 85.3304 275.2578 13.79433994592862 ARGOS 1 25634U 99008A 09183.69267732 -.00000031 00000-0 71771-5 0 7563 2 25634 99.0105 221.0127 0009520 262.8547 97.1529 14.18909802536246 HELIOS 1B 1 25977U 99064A 09184.61605725 .00000142 00000-0 27595-4 0 4109 2 25977 98.3419 185.9480 0000408 246.4014 113.7149 14.77699966514352 MTI 1 26102U 00014A 09184.83928637 .00000025 00000-0 50027-5 0 7628 2 26102 97.2213 348.1144 0021339 56.0147 80.9397 15.11761773511915 STRV 1C 1 26610U 00072C 09182.73192024 .00000392 00000-0 97220-2 0 9516 2 26610 6.6712 279.5217 7323432 76.2459 349.3318 2.03456583 64129 OFEQ 5 1 27434U 02025A 09184.81001157 .00000871 00000-0 27517-4 0 3563 2 27434 143.4671 26.8568 0025203 166.7711 31.1699 15.05642095395793 HELIOS-2A 1 28492U 04049A 09184.41351894 .00000050 00000-0 18541-4 0 886 2 28492 98.0848 120.9508 0001146 56.0183 304.1112 14.63867728242512 ESSAIM-1 1 28494U 04049C 09184.44693702 -.00000077 00000-0 -43188-5 0 1594 2 28494 98.2533 143.6362 0003057 159.9457 200.1862 14.70161944243475 ESSAIM-2 1 28495U 04049D 09184.44648086 -.00000049 00000-0 27084-6 0 1844 2 28495 98.2545 143.7435 0004104 160.8253 199.3102 14.70161685243478 ESSAIM-3 1 28496U 04049E 09184.44706434 -.00000062 00000-0 -16658-5 0 1117 2 28496 98.2676 148.0574 0008582 186.9195 173.1864 14.70163266243656 ESSAIM-4 1 28497U 04049F 09184.44659725 -.00000046 00000-0 95331-6 0 1632 2 28497 98.2680 148.0978 0011833 185.3282 174.7776 14.70163383243652 SAR-LUPE 1 1 29658U 06060A 09184.51182870 .00000715 00000-0 30646-4 0 8407 2 29658 98.1318 285.5670 0019829 200.2936 358.1088 15.26439560141411 MIDSTAR-1 1 30773U 07006B 09183.64221267 -.00000304 00000-0 00000+0 0 6606 2 30773 46.0250 275.3501 0010729 264.3207 95.6472 15.23745041129091 CFESAT 1 30777U 07006F 09183.91866118 .00000212 00000-0 18633-4 0 6210 2 30777 35.4340 7.8682 0003757 3.0463 357.0275 15.02766024127422 NFIRE 1 31140U 07014A 09184.86672649 .00003573 00000-0 49164-4 0 8716 2 31140 48.2327 117.3298 0051871 105.4616 255.2054 15.58681017124836 OFEQ 7 1 31601U 07025A 09184.53376554 .00001400 00000-0 40500-4 0 3403 2 31601 141.7462 199.5905 0073097 300.1757 225.6739 15.19625422114912 SAR-LUPE 2 1 31797U 07030A 09184.48486168 .00000516 00000-0 23096-4 0 2432 2 31797 98.1906 355.3262 0014599 150.0391 294.2701 15.26461438111632 SAR-LUPE 3 1 32283U 07053A 09184.49665632 .00000540 00000-0 24041-4 0 8753 2 32283 98.1219 56.9326 0008880 264.8138 214.5372 15.26403031 93143 SAR-LUPE 4 1 32750U 08014A 09184.47393678 .00000706 00000-0 30326-4 0 4175 2 32750 98.1281 286.5921 0021711 17.9614 45.8672 15.26403407 70596 SAR-LUPE 5 1 33244U 08036A 09184.48479404 .00000620 00000-0 27008-4 0 603 2 33244 98.1167 55.3487 0022750 62.0045 57.7585 15.26411408 52832 SPIRALE A 1 33751U 09008C 09183.75180838 -.00000042 00000-0 10000-3 0 955 2 33751 1.7802 244.5916 7138979 285.8934 11.5677 2.25837170 3165 SPIRALE B 1 33752U 09008D 09183.77104186 .00000041 00000-0 17223-2 0 793 2 33752 1.7802 244.9270 7136163 285.3757 11.7192 2.25845079 3165 TACSAT 3 1 35001U 09028A 09184.37021538 .00001438 00000-0 42144-4 0 401 2 35001 40.4542 143.8753 0026087 283.1467 76.6437 15.38880631 6849